TimeCDT,TemperatureF,Dew PointF,Humidity,Sea Level PressureIn,VisibilityMPH,Wind Direction,Wind SpeedMPH,Gust SpeedMPH,PrecipitationIn,Events,Conditions,WindDirDegrees,DateUTC
12:53 AM,39.0,25.0,57,30.31,10.0,SE,5.8,-,N/A,,Overcast,130,2012-10-29 05:53:00
1:53 AM,37.9,25.0,60,30.32,10.0,SE,3.5,-,N/A,,Overcast,140,2012-10-29 06:53:00
2:53 AM,37.9,24.1,57,30.31,10.0,SSE,3.5,-,N/A,,Overcast,150,2012-10-29 07:53:00
3:53 AM,39.0,23.0,53,30.30,10.0,SSE,5.8,-,N/A,,Overcast,160,2012-10-29 08:53:00
4:53 AM,37.0,23.0,57,30.31,10.0,SSE,4.6,-,N/A,,Overcast,160,2012-10-29 09:53:00
5:53 AM,37.0,23.0,57,30.30,10.0,Calm,Calm,-,N/A,,Mostly Cloudy,0,2012-10-29 10:53:00
6:53 AM,37.0,21.9,54,30.31,10.0,SE,5.8,-,N/A,,Overcast,130,2012-10-29 11:53:00
7:53 AM,37.0,21.9,54,30.30,10.0,SE,6.9,-,N/A,,Overcast,140,2012-10-29 12:53:00
8:53 AM,37.0,21.9,54,30.31,10.0,SE,5.8,-,N/A,,Overcast,140,2012-10-29 13:53:00
9:53 AM,39.0,21.9,50,30.32,10.0,SE,6.9,-,N/A,,Overcast,140,2012-10-29 14:53:00
10:53 AM,41.0,21.9,47,30.33,10.0,ESE,6.9,-,N/A,,Overcast,120,2012-10-29 15:53:00
11:53 AM,42.1,21.0,43,30.33,10.0,SE,9.2,-,N/A,,Overcast,140,2012-10-29 16:53:00
12:53 PM,44.1,21.0,40,30.32,10.0,SE,6.9,-,N/A,,Mostly Cloudy,140,2012-10-29 17:53:00
1:53 PM,44.1,21.0,40,30.30,10.0,SE,11.5,18.4,N/A,,Overcast,140,2012-10-29 18:53:00
2:53 PM,46.9,21.9,37,30.28,10.0,ESE,8.1,17.3,N/A,,Overcast,120,2012-10-29 19:53:00
3:53 PM,46.9,21.0,36,30.28,10.0,SE,10.4,18.4,N/A,,Overcast,140,2012-10-29 20:53:00
4:53 PM,46.0,21.0,37,30.27,10.0,ESE,8.1,-,N/A,,Overcast,120,2012-10-29 21:53:00
5:53 PM,44.1,21.0,40,30.28,10.0,ESE,4.6,-,N/A,,Mostly Cloudy,120,2012-10-29 22:53:00
6:53 PM,41.0,19.9,43,30.29,10.0,ESE,3.5,-,N/A,,Clear,120,2012-10-29 23:53:00
7:53 PM,37.9,21.9,53,30.29,10.0,Calm,Calm,-,N/A,,Clear,0,2012-10-30 00:53:00
8:53 PM,37.0,21.9,54,30.30,10.0,Calm,Calm,-,N/A,,Clear,0,2012-10-30 01:53:00
9:53 PM,30.9,24.1,76,30.30,10.0,Calm,Calm,-,N/A,,Mostly Cloudy,0,2012-10-30 02:53:00
10:53 PM,28.9,23.0,78,30.30,10.0,Calm,Calm,-,N/A,,Clear,0,2012-10-30 03:53:00
11:53 PM,28.9,21.9,75,30.30,10.0,Calm,Calm,-,N/A,,Clear,0,2012-10-30 04:53:00